Change the Weather History Date:

Sunday, October 14, 2012

  Actual Average Record
Temperature  
Mean Temperature 70 °F -  
Max Temperature 81 °F 68 °F 81 °F (2012)
Min Temperature 60 °F 54 °F 53 °F (2000)
Cooling Degree Days 6    
Growing Degree Days 20 (Base 50)    
Moisture  
Dew Point 49 °F    
Average Humidity 47    
Maximum Humidity 68    
Minimum Humidity 30    
Precipitation  
Precipitation 0.00 in 0.11 in - ()
Sea Level Pressure  
Sea Level Pressure 29.88 in    
Wind  
Wind Speed 8 mph ()    
Max Wind Speed 12 mph    
Max Gust Speed -    
Visibility 6.5 miles    
Events      
Averages and records for this station are not official NWS values.
T = Trace of Precipitation, MM = Missing Value Source: Averaged Metar Reports

Daily Weather History Graph

Daily Weather History Graph

Search for Another Location

Airport or City:

Trip Planner

Search our weather history database for the weather conditions in past years. The results will help you decide how hot, cold, wet, or windy it might be!

Date:

Astronomy

Oct. 14, 2012 Rise Set
Actual Time 8:24 AM CEST 7:42 PM CEST
Civil Twilight 7:58 AM CEST 8:08 PM CEST
Nautical Twilight 7:28 AM CEST 8:38 PM CEST
Astronomical Twilight 6:58 AM CEST 9:08 PM CEST
Moon 7:08 AM CEST (10/14) 6:53 PM CEST (10/14)
Length of Visible Light 12h 09m
Length of Day
11h 17m
Waning Crescent, 2% of the Moon is Illuminated
Oct 14
Waning Crescent
Oct 15
New
Oct 22
First Quarter
Oct 29
Full
Nov 7
Last Quarter

Hourly Weather History & Observations

Time (CEST) Temp. Dew Point Humidity Pressure Visibility Wind Dir Wind Speed Gust Speed Precip Events Conditions
12:00 AM 66.2 °F 41.0 °F 40% 29.98 in - West 8.1 mph - N/A   Clear
12:30 AM 64.4 °F 42.8 °F 45% 29.98 in 6.2 mi NW 5.8 mph - N/A   Partly Cloudy
1:30 AM 64.4 °F 44.6 °F 49% 29.95 in - WNW 8.1 mph - N/A   Clear
2:00 AM 62.6 °F 46.4 °F 55% 29.95 in - NW 5.8 mph - N/A   Clear
2:30 AM 64.4 °F 46.4 °F 52% 29.95 in - NW 8.1 mph - N/A   Clear
3:30 AM 62.6 °F 46.4 °F 55% 29.95 in - WNW 9.2 mph - N/A   Clear
4:00 AM 66.2 °F 46.4 °F 49% 29.95 in - West 9.2 mph - N/A   Clear
5:00 AM 62.6 °F 48.2 °F 59% 29.92 in - WNW 10.4 mph - N/A   Clear
5:30 AM 60.8 °F 48.2 °F 63% 29.92 in - WNW 8.1 mph - N/A   Clear
6:00 AM 60.8 °F 48.2 °F 63% 29.92 in - WNW 10.4 mph - N/A   Clear
6:30 AM 60.8 °F 48.2 °F 63% 29.92 in - WNW 11.5 mph - N/A   Clear
7:00 AM 68.0 °F 46.4 °F 46% 29.92 in - West 11.5 mph - N/A   Clear
7:30 AM 68.0 °F 48.2 °F 49% 29.92 in - West 10.4 mph - N/A   Clear
8:00 AM 63 °F 49 °F 50% 29.93 in 12 mi WNW 10.4 mph - -   Clear
8:00 AM 60.8 °F 48.2 °F 63% 29.92 in - WNW 10.4 mph - N/A   Clear
8:30 AM 60.8 °F 48.2 °F 63% 29.92 in - WNW 8.1 mph - N/A   Clear
9:00 AM 60.8 °F 50.0 °F 68% 29.92 in - WNW 9.2 mph - N/A   Clear
9:30 AM 66.2 °F 50.0 °F 56% 29.92 in - WNW 10.4 mph - N/A   Clear
10:00 AM 68.0 °F 48.2 °F 49% 29.92 in - West 11.5 mph - N/A   Clear
10:30 AM 66.2 °F 51.8 °F 60% 29.92 in - WNW 8.1 mph - N/A   Clear
11:00 AM 69.8 °F 50.0 °F 49% 29.95 in - WNW 8.1 mph - N/A   Clear
11:30 AM 71.6 °F 50.0 °F 46% 29.92 in - West 10.4 mph - N/A   Clear
12:00 PM 71.6 °F 50.0 °F 46% 29.92 in - West 10.4 mph - N/A   Clear
12:30 PM 75.2 °F 50.0 °F 41% 29.92 in - West 10.4 mph - N/A   Clear
1:00 PM 73.4 °F 48.2 °F 41% 29.89 in - WNW 6.9 mph - N/A   Clear
1:30 PM 77.0 °F 48.2 °F 36% 29.89 in - Variable 5.8 mph - N/A   Clear
2:00 PM 77 °F 51 °F 30% 29.89 in 25 mi SSE 5.8 mph - -   Scattered Clouds
2:00 PM 77.0 °F 46.4 °F 34% 29.89 in 6.2 mi SSE 5.8 mph - N/A   Partly Cloudy
2:30 PM 77.0 °F 46.4 °F 34% 29.86 in 6.2 mi SSE 8.1 mph - N/A   Partly Cloudy
3:00 PM 77.0 °F 44.6 °F 32% 29.86 in 6.2 mi South 9.2 mph - N/A   Partly Cloudy
3:30 PM 78.8 °F 51.8 °F 39% 29.83 in 6.2 mi South 9.2 mph - N/A   Partly Cloudy
4:00 PM 78.8 °F 53.6 °F 42% 29.83 in 6.2 mi SW 11.5 mph - N/A   Partly Cloudy
4:30 PM 78.8 °F 53.6 °F 42% 29.80 in 6.2 mi SSW 11.5 mph - N/A   Partly Cloudy
5:00 PM 78.8 °F 55.4 °F 44% 29.80 in 6.2 mi SSW 9.2 mph - N/A   Scattered Clouds
5:30 PM 78.8 °F 53.6 °F 42% 29.80 in 6.2 mi SSW 10.4 mph - N/A   Scattered Clouds
6:00 PM 80.6 °F 48.2 °F 32% 29.80 in 6.2 mi NW 3.5 mph - N/A   Scattered Clouds
6:30 PM 78.8 °F 50.0 °F 36% 29.80 in 6.2 mi NW 9.2 mph - N/A   Scattered Clouds
7:00 PM 77.0 °F 50.0 °F 39% 29.80 in 6.2 mi NW 9.2 mph - N/A   Scattered Clouds
7:30 PM 77.0 °F 50.0 °F 39% 29.80 in 6.2 mi NW 9.2 mph - N/A   Partly Cloudy
8:00 PM 77 °F 54 °F 34% 29.80 in 25 mi WNW 8.1 mph - -   Scattered Clouds
8:00 PM 75.2 °F 50.0 °F 41% 29.80 in 6.2 mi WNW 8.1 mph - N/A   Partly Cloudy
8:30 PM 73.4 °F 50.0 °F 44% 29.80 in 6.2 mi WNW 8.1 mph - N/A   Partly Cloudy
9:00 PM 73.4 °F 50.0 °F 44% 29.80 in 6.2 mi WSW 4.6 mph - N/A   Partly Cloudy
9:30 PM 73.4 °F 50.0 °F 44% 29.80 in - WSW 3.5 mph - N/A   Clear
10:00 PM 71.6 °F 50.0 °F 46% 29.80 in - SW 6.9 mph - N/A   Clear
10:30 PM 71.6 °F 51.8 °F 50% 29.80 in - SW 5.8 mph - N/A   Clear
11:00 PM 68.0 °F 51.8 °F 56% 29.80 in - WNW 6.9 mph - N/A   Clear